Home > Weather > Bristol > Past weeks

Flag for United Kingdom Past Weather in Bristol, England, United Kingdom — Yesterday and Last 2 Weeks

Now
57 °F

Rain. Mostly cloudy.


Feels Like: 55 °F
Forecast: 54 / 70 °F
Wind: 12 mph from West

Location: Bristol / Lulsgate

Current Time: Jul 29, 2016 at 1:19:16 AM

Latest Report: Jul 29, 2016 at 12:50 AM


Visibility: 2 mi

Pressure: 29.89 "Hg

Humidity: 100%

Dew Point: 57 °F

Location of BristolLocation

Past Weather in Bristol — Graph

°F

Bristol Temperature Yesterday

Maximum temperature yesterday: 66 °F (at 3:20 PM)
Minimum temperature yesterday: 52 °F (at 1:50 AM)
Average temperature yesterday: 59 °F

High & Low Weather Summary for the Past Weeks

 TemperatureHumidityPressure
High86 °F (Jul 19, 12:50 PM)100% (Jul 15, 4:20 PM)30.36 "Hg (Jul 15, 4:20 PM)
Low48 °F (Jul 14, 5:20 AM)46% (Jul 19, 2:20 PM)29.71 "Hg (Jul 20, 3:20 AM)
Average62 °F85%30.11 "Hg
* Reported Jul 14 12:20 AM — Jul 29 12:20 AM, Bristol, Weather by CustomWeather, © 2016

Note: Actual official high and low records may vary slightly from our data, if they occured in-between our weather recording intervals... More about our weather records

Advertising

Bristol Weather History for the Previous 24 Hours

Scroll right to see more
 ConditionsComfort  
Time TempWeatherWind HumidityBarometerVisibility
12:20 AM
Fri, Jul 29
59 °FPartly cloudy.8 mph100%29.89 "Hg1 mi
11:50 PM
Thu, Jul 28
59 °FFog.6 mph100%29.89 "Hg3 mi
11:20 PM59 °FLight rain. Overcast.7 mph94%29.89 "HgN/A
10:50 PM59 °FPartly cloudy.8 mph94%29.89 "HgN/A
10:20 PM61 °FOvercast.13 mph88%29.89 "HgN/A
9:50 PM59 °FPartly sunny.12 mph94%29.89 "HgN/A
9:20 PM59 °FPassing clouds.9 mph94%29.89 "HgN/A
8:50 PM61 °FBroken clouds.13 mph94%29.89 "HgN/A
8:20 PM61 °FCloudy.14 mph94%29.89 "HgN/A
7:50 PM63 °FMostly cloudy.15 mph88%29.89 "HgN/A
7:20 PM63 °FLow clouds.15 mph88%29.89 "HgN/A
6:50 PM64 °FOvercast.14 mph83%29.89 "HgN/A
6:20 PM64 °FCloudy.15 mph83%29.89 "HgN/A
5:50 PM64 °FPartly sunny.16 mph88%29.89 "HgN/A
5:20 PM64 °FPartly sunny.20 mph88%29.89 "HgN/A
4:50 PM66 °FPartly sunny.20 mph83%29.89 "HgN/A
4:20 PM66 °FScattered clouds.18 mph88%29.89 "HgN/A
3:50 PM66 °FScattered clouds.21 mph88%29.92 "HgN/A
3:20 PM66 °FScattered showers. Scattered clouds.17 mph88%29.92 "HgN/A
2:50 PM64 °FScattered showers. Scattered clouds.14 mph94%29.92 "Hg6 mi
2:20 PM63 °FSprinkles. Partly sunny.9 mph94%29.92 "Hg6 mi
1:50 PM64 °FScattered showers. Broken clouds.10 mph88%29.92 "HgN/A
1:20 PM63 °FBroken clouds.10 mph88%29.92 "HgN/A
12:50 PM61 °FBroken clouds.13 mph94%29.95 "HgN/A
12:20 PM59 °FScattered showers. Partly sunny.9 mph94%29.95 "HgN/A
11:50 AM59 °FDrizzle. Broken clouds.8 mph94%29.95 "HgN/A
11:20 AM59 °FDrizzle. Broken clouds.12 mph94%29.95 "Hg4 mi
10:50 AM61 °FDrizzle. Broken clouds.14 mph83%29.98 "Hg6 mi
10:20 AM59 °FOvercast.13 mph82%29.98 "HgN/A
9:50 AM59 °FOvercast.9 mph82%29.98 "HgN/A
9:20 AM61 °FOvercast.10 mph77%29.98 "HgN/A
8:50 AM59 °FPartly sunny.7 mph82%29.98 "HgN/A
8:20 AM59 °FPartly sunny.6 mph77%29.98 "HgN/A
7:50 AM57 °FPartly sunny.3 mph82%30.01 "HgN/A
7:20 AM57 °FCool.5 mph82%30.01 "HgN/A
6:50 AM55 °FCool.5 mph88%30.01 "HgN/A
6:20 AM54 °FCool.5 mph88%30.01 "HgN/A
5:50 AM54 °FCool.5 mph88%30.01 "HgN/A
5:20 AM54 °FCool.2 mph88%30.01 "HgN/A
4:50 AM54 °FCool.3 mph88%30.01 "HgN/A
4:20 AM54 °FPassing clouds.5 mph88%30.01 "HgN/A
3:50 AM54 °FPassing clouds.6 mph88%30.01 "HgN/A
3:20 AM54 °FPassing clouds.5 mph88%30.04 "HgN/A
2:50 AM52 °FPassing clouds.6 mph94%30.04 "HgN/A
2:20 AM54 °FCool.8 mph88%30.04 "HgN/A
1:50 AM52 °FCool.7 mph88%30.04 "HgN/A
1:20 AM54 °FCool.7 mph82%30.04 "HgN/A
Weather by CustomWeather, © 2016

See weather overviewHow to use our weather pages